Location: Kellogg
(38.0159°N, 90.0546°W)
Time: 00:55:22
(UTC+00:00)

Transit 2A - Pass Details

Date: 22 September 2024
Orbit: 590 x 960 km, 66.7° (Epoch: 09 October)

Event Time Altitude Azimuth Distance (km) Brightness Sun altitude
Rises 00:28:40 0° 258° (WSW) 3,484 11.1 -6.9°
Reaches altitude 10° 00:32:03 10° 277° (W) 2,604 10.5 -7.6°
Maximum altitude 00:35:59 17° 318° (NW) 2,167 9.1 -8.3°
Drops below altitude 10° 00:40:02 10° 358° (N) 2,690 8.9 -9.1°
Sets 00:43:38 0° 17° (NNE) 3,649 9.4 -9.8°
